| time (UTC) | temp F | wind direction | speed MPH | gust MPH | rain 1hr in | rain 24hr in | rain mn in | humidity % | barometer mb |
| 20260902170404 | 60 | 355 | 0.0 | 0.0 | 0.00 | 0.00 | 0.00 | 88 | 1007.0 |
| 20260902165904 | 60 | 355 | 0.0 | 1.0 | 0.00 | 0.00 | 0.00 | 86 | 1007.1 |
| 20260902165404 | 60 | 355 | 0.0 | 0.0 | 0.00 | 0.00 | 0.00 | 88 | 1007.2 |
| 20260902164904 | 60 | 355 | 0.0 | 0.0 | 0.00 | 0.00 | 0.00 | 88 | 1007.2 |
| 20260902164404 | 60 | 355 | 0.0 | 0.0 | 0.00 | 0.00 | 0.00 | 86 | 1007.3 |
| 20260902163905 | 60 | 355 | 0.0 | 0.0 | 0.00 | 0.00 | 0.00 | 86 | 1007.4 |
| 20260902163404 | 60 | 355 | 0.0 | 0.0 | 0.00 | 0.00 | 0.00 | 87 | 1007.6 |
| 20260902162906 | 60 | 355 | 0.0 | 1.0 | 0.00 | 0.00 | 0.00 | 86 | 1007.7 |
| 20260902162405 | 60 | 355 | 0.0 | 3.0 | 0.00 | 0.00 | 0.00 | 85 | 1007.7 |
| 20260902161905 | 60 | 355 | 0.0 | 1.0 | 0.00 | 0.00 | 0.00 | 87 | 1007.8 |
| 20260902161405 | 60 | 355 | 0.0 | 0.0 | 0.00 | 0.00 | 0.00 | 86 | 1007.9 |
| 20260902160406 | 59 | 355 | 0.0 | 0.0 | 0.00 | 0.00 | 0.00 | 88 | 1007.9 |
| 20260902155904 | 59 | 355 | 0.0 | 0.0 | 0.00 | 0.00 | 0.00 | 86 | 1008.0 |
| 20260902155405 | 59 | 355 | 2.0 | 3.0 | 0.00 | 0.00 | 0.00 | 85 | 1008.2 |
| 20260902154905 | 60 | 355 | 1.0 | 3.0 | 0.00 | 0.00 | 0.00 | 85 | 1008.3 |
| 20260902154405 | 60 | 355 | 0.0 | 3.0 | 0.00 | 0.00 | 0.00 | 86 | 1008.4 |
| 20260902153405 | 59 | 355 | 0.0 | 1.0 | 0.00 | 0.00 | 0.00 | 87 | 1008.5 |
| 20260902152905 | 58 | 355 | 1.0 | 3.0 | 0.00 | 0.00 | 0.00 | 86 | 1008.6 |
| 20260902152405 | 58 | 355 | 0.0 | 3.0 | 0.00 | 0.00 | 0.00 | 86 | 1008.7 |
| 20260902151404 | 59 | 355 | 0.0 | 1.0 | 0.00 | 0.00 | 0.00 | 86 | 1008.8 |
| 20260902150404 | 60 | 355 | 1.0 | 3.0 | 0.00 | 0.00 | 0.00 | 84 | 1009.0 |
| 20260902145904 | 60 | 355 | 2.0 | 3.0 | 0.00 | 0.00 | 0.00 | 83 | 1009.0 |
| 20260902145405 | 60 | 355 | 2.0 | 5.0 | 0.00 | 0.00 | 0.00 | 83 | 1009.0 |
| 20260902144905 | 60 | 355 | 1.0 | 3.0 | 0.00 | 0.00 | 0.00 | 83 | 1009.4 |
| 20260902144405 | 60 | 355 | 1.0 | 3.0 | 0.00 | 0.00 | 0.00 | 85 | 1009.6 |
| 20260902143905 | 59 | 355 | 3.0 | 6.0 | 0.00 | 0.00 | 0.00 | 83 | 1009.6 |
| 20260902143405 | 59 | 355 | 3.0 | 8.0 | 0.00 | 0.00 | 0.00 | 83 | 1009.8 |
| 20260902142905 | 60 | 356 | 2.0 | 6.0 | 0.00 | 0.00 | 0.00 | 85 | 1009.8 |
| 20260902142405 | 60 | 355 | 3.0 | 6.0 | 0.00 | 0.00 | 0.00 | 84 | 1009.8 |
| 20260902141906 | 60 | 355 | 0.0 | 5.0 | 0.00 | 0.00 | 0.00 | 86 | 1009.8 |
| 20260902141405 | 59 | 355 | 0.0 | 5.0 | 0.00 | 0.00 | 0.00 | 87 | 1009.8 |
| 20260902140905 | 59 | 355 | 1.0 | 3.0 | 0.00 | 0.00 | 0.00 | 86 | 1010.0 |
| 20260902135904 | 58 | 355 | 2.0 | 8.0 | 0.00 | 0.00 | 0.00 | 86 | 1010.1 |
| 20260902135404 | 58 | 11 | 1.0 | 5.0 | 0.00 | 0.00 | 0.00 | 88 | 1010.4 |
| 20260902134905 | 57 | 11 | 3.0 | 7.0 | 0.00 | 0.00 | 0.00 | 87 | 1010.5 |
| 20260902134404 | 57 | 13 | 4.0 | 8.0 | 0.00 | 0.00 | 0.00 | 87 | 1010.5 |
| 20260902133904 | 57 | 358 | 3.0 | 7.0 | 0.00 | 0.00 | 0.00 | 88 | 1010.5 |
| 20260902133404 | 57 | 326 | 1.0 | 3.0 | 0.00 | 0.00 | 0.00 | 87 | 1010.5 |
| 20260902132904 | 57 | 326 | 1.0 | 3.0 | 0.00 | 0.00 | 0.00 | 89 | 1010.5 |
| 20260902132404 | 57 | 326 | 1.0 | 3.0 | 0.00 | 0.00 | 0.00 | 90 | 1010.5 |
| 20260902131904 | 57 | 326 | 1.0 | 3.0 | 0.00 | 0.00 | 0.00 | 90 | 1010.6 |
| 20260902131405 | 56 | 326 | 0.0 | 3.0 | 0.00 | 0.00 | 0.00 | 90 | 1010.6 |
| 20260902130904 | 55 | 326 | 1.0 | 3.0 | 0.00 | 0.00 | 0.00 | 91 | 1010.8 |
| 20260902125904 | 54 | 326 | 0.0 | 3.0 | 0.00 | 0.00 | 0.00 | 92 | 1011.0 |
| 20260902124904 | 54 | 325 | 1.0 | 3.0 | 0.00 | 0.00 | 0.00 | 92 | 1011.3 |
| 20260902124404 | 54 | 325 | 0.0 | 1.0 | 0.00 | 0.00 | 0.00 | 92 | 1011.2 |
| 20260902123905 | 54 | 325 | 1.0 | 5.0 | 0.00 | 0.00 | 0.00 | 92 | 1011.2 |
| 20260902123405 | 54 | 325 | 2.0 | 3.0 | 0.00 | 0.00 | 0.00 | 92 | 1011.5 |
| 20260902122905 | 54 | 325 | 0.0 | 0.0 | 0.00 | 0.00 | 0.00 | 92 | 1011.5 |
| 20260902122405 | 54 | 325 | 0.0 | 0.0 | 0.00 | 0.00 | 0.00 | 92 | 1011.6 |
| 20260902121405 | 54 | 325 | 0.0 | 1.0 | 0.00 | 0.00 | 0.00 | 92 | 1011.6 |
| 20260902120905 | 54 | 325 | 0.0 | 3.0 | 0.00 | 0.00 | 0.00 | 92 | 1011.7 |
| 20260902120404 | 54 | 325 | 0.0 | 2.0 | 0.00 | 0.00 | 0.00 | 91 | 1011.7 |
| 20260902115905 | 54 | 325 | 0.0 | 0.0 | 0.00 | 0.00 | 0.00 | 91 | 1011.9 |
| 20260902115405 | 54 | 325 | 0.0 | 1.0 | 0.00 | 0.00 | 0.00 | 90 | 1012.0 |
| 20260902114405 | 54 | 325 | 0.0 | 0.0 | 0.00 | 0.00 | 0.00 | 90 | 1012.1 |
| 20260902113904 | 54 | 325 | 2.0 | 3.0 | 0.00 | 0.00 | 0.00 | 89 | 1012.1 |
| 20260902113404 | 54 | 325 | 1.0 | 3.0 | 0.00 | 0.00 | 0.00 | 89 | 1012.1 |
| 20260902112904 | 55 | 325 | 0.0 | 2.0 | 0.00 | 0.00 | 0.00 | 89 | 1012.1 |
| 20260902112404 | 55 | 325 | 0.0 | 5.0 | 0.00 | 0.00 | 0.00 | 88 | 1012.1 |
| 20260902111905 | 55 | 325 | 3.0 | 6.0 | 0.00 | 0.00 | 0.00 | 88 | 1012.2 |
| 20260902111404 | 55 | 294 | 0.0 | 3.0 | 0.00 | 0.00 | 0.00 | 88 | 1012.2 |
| 20260902110904 | 55 | 294 | 0.0 | 3.0 | 0.00 | 0.00 | 0.00 | 89 | 1012.1 |
| 20260902110404 | 55 | 294 | 1.0 | 5.0 | 0.00 | 0.00 | 0.00 | 89 | 1012.1 |
| 20260902105904 | 55 | 280 | 0.0 | 1.0 | 0.00 | 0.00 | 0.00 | 90 | 1012.3 |
| 20260902105404 | 54 | 280 | 0.0 | 1.0 | 0.00 | 0.00 | 0.00 | 91 | 1012.2 |
| 20260902104904 | 54 | 280 | 0.0 | 0.0 | 0.00 | 0.00 | 0.00 | 91 | 1012.0 |
| 20260902104404 | 54 | 280 | 1.0 | 5.0 | 0.00 | 0.00 | 0.00 | 91 | 1012.2 |
| 20260902103404 | 54 | 279 | 2.0 | 5.0 | 0.00 | 0.00 | 0.00 | 93 | 1012.3 |
| 20260902102904 | 54 | 252 | 0.0 | 1.0 | 0.00 | 0.00 | 0.00 | 93 | 1012.3 |
| 20260902102405 | 54 | 252 | 0.0 | 0.0 | 0.00 | 0.00 | 0.00 | 94 | 1012.4 |
| 20260902101904 | 54 | 252 | 0.0 | 0.0 | 0.00 | 0.00 | 0.00 | 94 | 1012.5 |
| 20260902100904 | 53 | 252 | 1.0 | 3.0 | 0.00 | 0.00 | 0.00 | 95 | 1012.3 |
| 20260902100404 | 53 | 252 | 0.0 | 3.0 | 0.00 | 0.02 | 0.00 | 95 | 1012.3 |
| 20260902095905 | 53 | 252 | 1.0 | 3.0 | 0.00 | 0.07 | 0.00 | 95 | 1012.4 |
| 20260902095404 | 53 | 252 | 0.0 | 2.0 | 0.00 | 0.07 | 0.00 | 96 | 1012.5 |
| 20260902094905 | 53 | 252 | 0.0 | 0.0 | 0.00 | 0.07 | 0.00 | 95 | 1012.5 |
| 20260902094404 | 52 | 252 | 0.0 | 0.0 | 0.00 | 0.07 | 0.00 | 96 | 1012.5 |
| 20260902093905 | 52 | 252 | 0.0 | 0.0 | 0.00 | 0.07 | 0.00 | 96 | 1012.6 |
| 20260902093405 | 52 | 252 | 0.0 | 3.0 | 0.00 | 0.07 | 0.00 | 96 | 1012.5 |
| 20260902092905 | 52 | 252 | 0.0 | 5.0 | 0.00 | 0.08 | 0.00 | 96 | 1012.5 |
| 20260902091904 | 52 | 207 | 0.0 | 0.0 | 0.00 | 0.09 | 0.00 | 96 | 1012.5 |
| 20260902091404 | 52 | 207 | 0.0 | 0.0 | 0.00 | 0.09 | 0.00 | 97 | 1012.5 |
| 20260902090905 | 52 | 207 | 0.0 | 0.0 | 0.00 | 0.10 | 0.00 | 97 | 1012.6 |
| 20260902085404 | 52 | 207 | 0.0 | 3.0 | 0.00 | 0.13 | 0.00 | 97 | 1012.6 |
| 20260902084904 | 52 | 207 | 0.0 | 1.0 | 0.00 | 0.14 | 0.00 | 97 | 1012.6 |
| 20260902084405 | 51 | 207 | 2.0 | 3.0 | 0.00 | 0.15 | 0.00 | 97 | 1012.6 |
| 20260902083904 | 51 | 207 | 0.0 | 2.0 | 0.00 | 0.17 | 0.00 | 97 | 1012.6 |
| 20260902083404 | 51 | 207 | 0.0 | 2.0 | 0.00 | 0.17 | 0.00 | 97 | 1012.6 |
| 20260902082905 | 51 | 207 | 0.0 | 0.0 | 0.00 | 0.19 | 0.00 | 97 | 1012.7 |
| 20260902082404 | 51 | 207 | 0.0 | 0.0 | 0.00 | 0.20 | 0.00 | 97 | 1012.7 |
| 20260902081904 | 50 | 207 | 0.0 | 0.0 | 0.00 | 0.23 | 0.00 | 97 | 1012.7 |
| 20260902081405 | 50 | 207 | 0.0 | 0.0 | 0.00 | 0.24 | 0.00 | 97 | 1012.7 |
| 20260902080904 | 50 | 207 | 0.0 | 0.0 | 0.00 | 0.27 | 0.00 | 97 | 1012.7 |
| 20260902074905 | 49 | 207 | 0.0 | 0.0 | 0.00 | 0.31 | 0.00 | 97 | 1012.7 |
| 20260902074405 | 48 | 207 | 0.0 | 0.0 | 0.00 | 0.31 | 0.00 | 96 | 1012.7 |
| 20260902073905 | 48 | 207 | 0.0 | 0.0 | 0.00 | 0.33 | 0.00 | 96 | 1012.8 |
| 20260902073405 | 48 | 207 | 0.0 | 0.0 | 0.00 | 0.34 | 0.00 | 97 | 1012.8 |
| 20260902072904 | 48 | 207 | 0.0 | 0.0 | 0.00 | 0.34 | 0.00 | 96 | 1012.9 |
| 20260902072404 | 48 | 207 | 0.0 | 0.0 | 0.00 | 0.34 | 0.00 | 96 | 1012.8 |
| 20260902071405 | 47 | 207 | 0.0 | 0.0 | 0.00 | 0.35 | 0.00 | 96 | 1012.7 |
| 20260902070904 | 47 | 207 | 0.0 | 2.0 | 0.00 | 0.35 | 0.00 | 96 | 1012.7 |
| 20260902070404 | 47 | 207 | 0.0 | 0.0 | 0.00 | 0.35 | 0.00 | 96 | 1012.8 |
| 20260902065904 | 46 | 207 | 0.0 | 0.0 | 0.00 | 0.35 | 0.00 | 96 | 1013.0 |
| 20260902065404 | 46 | 207 | 0.0 | 0.0 | 0.00 | 0.35 | 0.00 | 96 | 1013.1 |
| 20260902064405 | 46 | 207 | 0.0 | 0.0 | 0.00 | 0.35 | 0.00 | 96 | 1013.2 |
| 20260902063905 | 46 | 215 | 0.0 | 0.0 | 0.00 | 0.35 | 0.00 | 96 | 1013.2 |
| 20260902063404 | 45 | 215 | 0.0 | 0.0 | 0.00 | 0.35 | 0.00 | 96 | 1013.1 |
| 20260902062405 | 45 | 215 | 0.0 | 0.0 | 0.00 | 0.35 | 0.00 | 96 | 1013.0 |
| 20260902060405 | 45 | 215 | 0.0 | 0.0 | 0.00 | 0.35 | 0.00 | 96 | 1013.0 |
| 20260902055904 | 45 | 215 | 0.0 | 0.0 | 0.00 | 0.35 | 0.00 | 95 | 1013.0 |
| 20260902055405 | 45 | 215 | 0.0 | 0.0 | 0.00 | 0.35 | 0.00 | 95 | 1013.0 |
| 20260902054905 | 45 | 215 | 0.0 | 0.0 | 0.00 | 0.35 | 0.00 | 95 | 1013.0 |
| 20260902053905 | 45 | 215 | 0.0 | 0.0 | 0.00 | 0.35 | 0.00 | 95 | 1013.1 |
| 20260902052905 | 45 | 215 | 0.0 | 0.0 | 0.00 | 0.35 | 0.00 | 95 | 1013.2 |
| 20260902051905 | 45 | 215 | 0.0 | 0.0 | 0.00 | 0.35 | 0.00 | 95 | 1013.2 |
| 20260902051405 | 45 | 215 | 0.0 | 0.0 | 0.00 | 0.35 | 0.00 | 95 | 1013.2 |
| 20260902050904 | 45 | 215 | 0.0 | 0.0 | 0.00 | 0.36 | 0.00 | 95 | 1013.0 |
| 20260902045905 | 45 | 215 | 0.0 | 0.0 | 0.00 | 0.36 | 0.00 | 95 | 1013.1 |
| 20260902045404 | 45 | 215 | 0.0 | 0.0 | 0.00 | 0.36 | 0.00 | 95 | 1013.2 |
| 20260902044904 | 45 | 215 | 0.0 | 0.0 | 0.00 | 0.37 | 0.00 | 95 | 1013.2 |
| 20260902044406 | 45 | 215 | 0.0 | 0.0 | 0.00 | 0.37 | 0.00 | 95 | 1013.2 |
| 20260902043405 | 45 | 215 | 0.0 | 0.0 | 0.00 | 0.37 | 0.00 | 95 | 1013.1 |
| 20260902042905 | 46 | 215 | 0.0 | 0.0 | 0.00 | 0.37 | 0.00 | 95 | 1013.2 |
| 20260902041904 | 46 | 215 | 0.0 | 0.0 | 0.00 | 0.37 | 0.00 | 95 | 1013.4 |
| 20260902041404 | 46 | 215 | 0.0 | 0.0 | 0.00 | 0.37 | 0.00 | 95 | 1013.4 |
| 20260902040904 | 46 | 215 | 0.0 | 0.0 | 0.00 | 0.37 | 0.00 | 95 | 1013.3 |
| 20260902040405 | 47 | 215 | 0.0 | 0.0 | 0.00 | 0.37 | 0.00 | 95 | 1013.2 |
| 20260902035904 | 47 | 215 | 0.0 | 0.0 | 0.00 | 0.37 | 0.00 | 95 | 1013.4 |
| 20260902035404 | 47 | 215 | 0.0 | 0.0 | 0.00 | 0.37 | 0.00 | 95 | 1013.2 |
| 20260902034905 | 47 | 215 | 0.0 | 0.0 | 0.00 | 0.37 | 0.00 | 95 | 1013.3 |
| 20260902034405 | 47 | 215 | 0.0 | 0.0 | 0.00 | 0.38 | 0.00 | 95 | 1013.4 |
| 20260902033905 | 47 | 215 | 0.0 | 0.0 | 0.00 | 0.39 | 0.00 | 95 | 1013.4 |
| 20260902033405 | 47 | 215 | 0.0 | 0.0 | 0.00 | 0.39 | 0.00 | 95 | 1013.3 |
| 20260902032405 | 48 | 215 | 0.0 | 0.0 | 0.00 | 0.39 | 0.00 | 95 | 1013.3 |
| 20260902031905 | 48 | 215 | 0.0 | 0.0 | 0.00 | 0.39 | 0.00 | 95 | 1013.5 |
| 20260902031405 | 48 | 215 | 0.0 | 0.0 | 0.00 | 0.39 | 0.00 | 96 | 1013.5 |
| 20260902030905 | 49 | 215 | 0.0 | 0.0 | 0.00 | 0.39 | 0.00 | 96 | 1013.5 |
| 20260902030404 | 49 | 215 | 0.0 | 0.0 | 0.00 | 0.39 | 0.00 | 96 | 1013.6 |
| 20260902025904 | 49 | 215 | 0.0 | 0.0 | 0.00 | 0.39 | 0.00 | 96 | 1013.6 |
| 20260902025404 | 49 | 215 | 0.0 | 0.0 | 0.00 | 0.39 | 0.00 | 96 | 1013.5 |
| 20260902024905 | 49 | 215 | 0.0 | 0.0 | 0.00 | 0.39 | 0.00 | 96 | 1013.4 |
| 20260902024405 | 49 | 215 | 0.0 | 0.0 | 0.00 | 0.39 | 0.00 | 96 | 1013.4 |
| 20260902023405 | 49 | 215 | 0.0 | 0.0 | 0.00 | 0.39 | 0.00 | 96 | 1013.5 |
| 20260902022905 | 49 | 215 | 0.0 | 0.0 | 0.00 | 0.39 | 0.00 | 96 | 1013.5 |
| 20260902022405 | 49 | 215 | 0.0 | 0.0 | 0.00 | 0.39 | 0.00 | 96 | 1013.6 |
| 20260902020904 | 49 | 215 | 0.0 | 0.0 | 0.00 | 0.39 | 0.00 | 96 | 1013.7 |
| 20260902015905 | 49 | 215 | 0.0 | 0.0 | 0.00 | 0.39 | 0.00 | 96 | 1013.8 |
| 20260902015404 | 49 | 215 | 0.0 | 0.0 | 0.00 | 0.39 | 0.00 | 96 | 1013.7 |
| 20260902014905 | 49 | 215 | 0.0 | 0.0 | 0.00 | 0.39 | 0.00 | 96 | 1013.7 |
| 20260902014405 | 49 | 215 | 0.0 | 0.0 | 0.00 | 0.39 | 0.00 | 96 | 1013.8 |
| 20260902013905 | 48 | 215 | 0.0 | 0.0 | 0.00 | 0.39 | 0.00 | 96 | 1013.7 |
| 20260902013404 | 48 | 215 | 0.0 | 0.0 | 0.00 | 0.40 | 0.00 | 96 | 1013.7 |
| 20260902012904 | 48 | 215 | 0.0 | 0.0 | 0.00 | 0.40 | 0.00 | 96 | 1013.7 |
| 20260902012405 | 48 | 215 | 0.0 | 0.0 | 0.00 | 0.40 | 0.00 | 96 | 1013.6 |
| 20260902011905 | 48 | 215 | 0.0 | 0.0 | 0.00 | 0.40 | 0.00 | 96 | 1013.8 |
| 20260902011405 | 48 | 215 | 0.0 | 0.0 | 0.00 | 0.40 | 0.00 | 96 | 1013.7 |
| 20260902010905 | 48 | 215 | 0.0 | 0.0 | 0.00 | 0.40 | 0.00 | 96 | 1013.6 |
| 20260902005405 | 48 | 215 | 0.0 | 0.0 | 0.00 | 0.40 | 0.00 | 95 | 1013.6 |
| 20260902004905 | 47 | 215 | 0.0 | 1.0 | 0.00 | 0.40 | 0.00 | 95 | 1013.6 |
| 20260902004406 | 47 | 215 | 0.0 | 0.0 | 0.00 | 0.40 | 0.00 | 95 | 1013.7 |
| 20260902003905 | 47 | 215 | 0.0 | 0.0 | 0.00 | 0.40 | 0.00 | 95 | 1013.6 |
| 20260902003406 | 47 | 215 | 0.0 | 0.0 | 0.00 | 0.40 | 0.00 | 95 | 1013.7 |
| 20260902002905 | 47 | 215 | 0.0 | 1.0 | 0.00 | 0.40 | 0.00 | 95 | 1013.6 |
| 20260902002406 | 47 | 215 | 0.0 | 0.0 | 0.00 | 0.40 | 0.00 | 95 | 1013.6 |
| 20260902001906 | 47 | 215 | 0.0 | 0.0 | 0.00 | 0.40 | 0.00 | 95 | 1013.7 |
| 20260902001405 | 47 | 215 | 1.0 | 3.0 | 0.00 | 0.41 | 0.00 | 95 | 1013.6 |
| 20260902000906 | 46 | 215 | 0.0 | 2.0 | 0.00 | 0.41 | 0.00 | 94 | 1013.7 |
| 20260902000407 | 46 | 215 | 0.0 | 1.0 | 0.00 | 0.41 | 0.00 | 94 | 1013.7 |
| 20260901235405 | 46 | 215 | 0.0 | 2.0 | 0.00 | 0.41 | 0.00 | 94 | 1013.6 |
| 20260901234905 | 46 | 215 | 0.0 | 2.0 | 0.00 | 0.41 | 0.00 | 94 | 1013.6 |
| 20260901234405 | 46 | 215 | 0.0 | 1.0 | 0.00 | 0.41 | 0.00 | 93 | 1013.6 |
| 20260901232904 | 46 | 215 | 0.0 | 1.0 | 0.00 | 0.41 | 0.00 | 93 | 1013.7 |
| 20260901232404 | 47 | 215 | 0.0 | 1.0 | 0.00 | 0.41 | 0.00 | 93 | 1013.8 |
| 20260901231905 | 47 | 215 | 0.0 | 0.0 | 0.00 | 0.41 | 0.00 | 93 | 1013.7 |
| 20260901231405 | 47 | 215 | 0.0 | 0.0 | 0.00 | 0.41 | 0.00 | 93 | 1013.7 |
| 20260901230905 | 47 | 215 | 0.0 | 0.0 | 0.00 | 0.41 | 0.00 | 93 | 1013.5 |
| 20260901225904 | 48 | 215 | 0.0 | 0.0 | 0.00 | 0.41 | 0.41 | 93 | 1013.5 |
| 20260901225404 | 48 | 215 | 0.0 | 0.0 | 0.00 | 0.41 | 0.41 | 94 | 1013.5 |
| 20260901224904 | 48 | 215 | 0.0 | 0.0 | 0.00 | 0.41 | 0.41 | 94 | 1013.4 |
| 20260901223903 | 48 | 215 | 0.0 | 0.0 | 0.00 | 0.41 | 0.41 | 94 | 1013.5 |
| 20260901223403 | 48 | 215 | 0.0 | 0.0 | 0.00 | 0.41 | 0.41 | 94 | 1013.6 |
| 20260901222904 | 48 | 215 | 0.0 | 0.0 | 0.00 | 0.41 | 0.41 | 94 | 1013.5 |
| 20260901222404 | 48 | 215 | 0.0 | 0.0 | 0.00 | 0.41 | 0.41 | 94 | 1013.5 |
| 20260901221403 | 48 | 215 | 0.0 | 0.0 | 0.00 | 0.41 | 0.41 | 93 | 1013.5 |
| 20260901220904 | 48 | 215 | 0.0 | 0.0 | 0.00 | 0.41 | 0.41 | 93 | 1013.5 |
| 20260901220404 | 48 | 215 | 0.0 | 0.0 | 0.00 | 0.41 | 0.41 | 93 | 1013.6 |
| 20260901215905 | 48 | 215 | 0.0 | 0.0 | 0.00 | 0.41 | 0.41 | 93 | 1013.6 |
| 20260901215403 | 48 | 215 | 0.0 | 0.0 | 0.00 | 0.41 | 0.41 | 93 | 1013.5 |
| 20260901214903 | 48 | 215 | 0.0 | 0.0 | 0.00 | 0.41 | 0.41 | 92 | 1013.6 |
| 20260901214404 | 48 | 215 | 0.0 | 0.0 | 0.00 | 0.41 | 0.41 | 92 | 1013.7 |
| 20260901213904 | 48 | 215 | 0.0 | 0.0 | 0.00 | 0.41 | 0.41 | 92 | 1013.6 |
| 20260901213404 | 48 | 215 | 0.0 | 0.0 | 0.00 | 0.41 | 0.41 | 92 | 1013.6 |
| 20260901212904 | 48 | 215 | 0.0 | 0.0 | 0.00 | 0.41 | 0.41 | 92 | 1013.3 |
| 20260901212404 | 48 | 215 | 0.0 | 0.0 | 0.00 | 0.41 | 0.41 | 92 | 1013.5 |
| 20260901211903 | 49 | 215 | 0.0 | 0.0 | 0.00 | 0.41 | 0.41 | 92 | 1013.4 |
| 20260901211404 | 49 | 215 | 0.0 | 0.0 | 0.00 | 0.41 | 0.41 | 92 | 1013.3 |
| 20260901210904 | 49 | 215 | 0.0 | 0.0 | 0.00 | 0.41 | 0.41 | 91 | 1013.2 |
| 20260901205904 | 49 | 215 | 0.0 | 0.0 | 0.00 | 0.41 | 0.41 | 91 | 1013.1 |
| 20260901205404 | 50 | 215 | 0.0 | 0.0 | 0.00 | 0.41 | 0.41 | 91 | 1013.1 |
| 20260901204903 | 50 | 215 | 0.0 | 0.0 | 0.00 | 0.41 | 0.41 | 91 | 1013.1 |
| 20260901204404 | 50 | 215 | 0.0 | 0.0 | 0.00 | 0.41 | 0.41 | 91 | 1013.1 |
| 20260901203903 | 50 | 215 | 0.0 | 0.0 | 0.00 | 0.41 | 0.41 | 91 | 1013.1 |
| 20260901203404 | 51 | 215 | 0.0 | 0.0 | 0.00 | 0.41 | 0.41 | 91 | 1013.1 |
| 20260901202903 | 51 | 215 | 0.0 | 0.0 | 0.00 | 0.41 | 0.41 | 91 | 1013.0 |
| 20260901201404 | 52 | 215 | 0.0 | 0.0 | 0.00 | 0.41 | 0.41 | 91 | 1013.0 |
| 20260901200903 | 52 | 215 | 0.0 | 0.0 | 0.00 | 0.41 | 0.41 | 91 | 1013.1 |
| 20260901200403 | 52 | 215 | 0.0 | 0.0 | 0.00 | 0.41 | 0.41 | 92 | 1013.1 |
| 20260901195903 | 52 | 215 | 0.0 | 0.0 | 0.00 | 0.41 | 0.41 | 92 | 1013.0 |
| 20260901195404 | 52 | 215 | 0.0 | 0.0 | 0.00 | 0.41 | 0.41 | 92 | 1012.9 |
| 20260901194903 | 52 | 215 | 0.0 | 0.0 | 0.00 | 0.41 | 0.41 | 92 | 1012.8 |
| 20260901194404 | 52 | 215 | 0.0 | 0.0 | 0.00 | 0.41 | 0.41 | 92 | 1012.7 |
| 20260901193903 | 52 | 215 | 0.0 | 0.0 | 0.00 | 0.41 | 0.41 | 92 | 1012.8 |
| 20260901193403 | 53 | 215 | 0.0 | 0.0 | 0.00 | 0.41 | 0.41 | 92 | 1012.6 |
| 20260901192904 | 53 | 215 | 0.0 | 0.0 | 0.00 | 0.41 | 0.41 | 92 | 1012.6 |
| 20260901192404 | 52 | 215 | 0.0 | 0.0 | 0.00 | 0.41 | 0.41 | 92 | 1012.5 |
| 20260901191903 | 52 | 215 | 0.0 | 0.0 | 0.00 | 0.41 | 0.41 | 92 | 1012.5 |
| 20260901191403 | 53 | 215 | 0.0 | 0.0 | 0.00 | 0.41 | 0.41 | 91 | 1012.5 |
| 20260901190904 | 53 | 215 | 0.0 | 0.0 | 0.00 | 0.41 | 0.41 | 91 | 1012.4 |
| 20260901190403 | 53 | 215 | 0.0 | 0.0 | 0.00 | 0.41 | 0.41 | 90 | 1012.3 |
| 20260901185904 | 53 | 215 | 0.0 | 0.0 | 0.00 | 0.41 | 0.41 | 89 | 1012.3 |
| 20260901185404 | 53 | 215 | 0.0 | 0.0 | 0.00 | 0.41 | 0.41 | 88 | 1012.3 |
| 20260901184904 | 53 | 215 | 0.0 | 1.0 | 0.00 | 0.41 | 0.41 | 87 | 1012.3 |
| 20260901184404 | 54 | 215 | 0.0 | 0.0 | 0.00 | 0.41 | 0.41 | 87 | 1012.2 |
| 20260901183904 | 54 | 215 | 0.0 | 2.0 | 0.00 | 0.41 | 0.41 | 86 | 1012.1 |
| 20260901183404 | 54 | 215 | 0.0 | 2.0 | 0.00 | 0.41 | 0.41 | 85 | 1012.1 |
| 20260901182904 | 54 | 215 | 0.0 | 1.0 | 0.00 | 0.41 | 0.41 | 84 | 1012.0 |
| 20260901182403 | 54 | 215 | 1.0 | 3.0 | 0.00 | 0.41 | 0.41 | 84 | 1012.1 |
| 20260901181903 | 55 | 215 | 1.0 | 3.0 | 0.00 | 0.41 | 0.41 | 85 | 1012.0 |
| 20260901180405 | 55 | 207 | 3.0 | 7.0 | 0.00 | 0.41 | 0.41 | 85 | 1011.7 |
| 20260901175904 | 55 | 207 | 2.0 | 7.0 | 0.00 | 0.41 | 0.41 | 84 | 1011.8 |
| 20260901174904 | 55 | 208 | 1.0 | 5.0 | 0.00 | 0.41 | 0.41 | 84 | 1011.7 |
| 20260901174404 | 55 | 208 | 1.0 | 3.0 | 0.00 | 0.41 | 0.41 | 84 | 1011.7 |
| 20260901173405 | 56 | 208 | 1.0 | 6.0 | 0.00 | 0.41 | 0.41 | 83 | 1011.7 |
| 20260901172903 | 56 | 207 | 1.0 | 5.0 | 0.00 | 0.41 | 0.41 | 81 | 1011.7 |
| 20260901172404 | 57 | 207 | 1.0 | 5.0 | 0.00 | 0.41 | 0.41 | 80 | 1011.8 |
| 20260901171904 | 57 | 208 | 5.0 | 7.0 | 0.00 | 0.41 | 0.41 | 78 | 1011.7 |
| 20260901171404 | 58 | 205 | 1.0 | 5.0 | 0.00 | 0.41 | 0.41 | 80 | 1011.7 |
| 20260901170904 | 59 | 205 | 1.0 | 8.0 | 0.00 | 0.41 | 0.41 | 76 | 1011.7 |